Flag for U.S.A. Weather past 2 weeks in Cupertino, California, U.S.A.

Now
75 °F

Sunny.


Feels Like: 78 °F
Forecast: 61 / 76 °F
Wind: 21 mph from North

Location: Moffett Field

Current Time: Jul 6, 2015 at 4:20:36 PM

Latest Report: Jul 6, 2015 at 3:56 PM


Visibility: 10 mi

Pressure: 30.04 "Hg

Humidity: 55%

Dew point: 58 °F

Location of CupertinoLocation

Historic Weather in Cupertino — Graph

°F

Cupertino temperature yesterday

Maximum temperature yesterday: 77 °F (at 1:56 PM)
Minimum temperature yesterday: 61 °F (at 5:56 AM)
Average temperature yesterday: 69 °F

Past Weeks' High & Low Weather Summary

 TemperatureHumidityPressure
High89 °F (Jun 30, 3:56 PM)90% (Jul 2, 5:56 AM)30.10 "Hg (Jul 2, 5:56 AM)
Low55 °F (Jun 22, 4:56 AM)31% (Jun 30, 3:56 PM)29.81 "Hg (Jun 30, 5:56 PM)
Average68 °F70%29.95 "Hg
* Reported Jun 21 2:56 PM — Jul 6 2:56 PM, Cupertino, Weather by CustomWeather, © 2015

Note: Actual official high and low records may vary slightly from our data, if they occured in-between our weather recording intervals... More about our weather records

Advertising

Cupertino weather history for previous 24 hours

 ConditionsComfort  
Time TempWeatherWind HumidityBarometerVisibility
2:56 PM
Mon, Jul 6
76 °FSunny.22 mph54%30.06 "Hg10 mi
1:56 PM75 °FSunny.16 mph55%30.07 "Hg10 mi
12:56 PM74 °FSunny.12 mph57%30.08 "Hg10 mi
11:56 AM72 °FSunny.9 mph61%30.10 "Hg10 mi
10:56 AM70 °FSunny.9 mph64%30.09 "Hg10 mi
9:56 AM69 °FPassing clouds.7 mph66%30.10 "Hg10 mi
8:56 AM68 °FSunny.7 mph68%30.10 "Hg10 mi
7:56 AM65 °FPartly sunny.6 mph76%30.09 "Hg10 mi
6:56 AM63 °FOvercast.6 mph75%30.08 "Hg10 mi
5:56 AM63 °FOvercast.3 mph75%30.06 "Hg10 mi
4:56 AM64 °FOvercast.5 mph75%30.04 "Hg10 mi
3:56 AM65 °FOvercast.3 mph78%30.03 "Hg10 mi
2:56 AM65 °FOvercast.5 mph78%30.03 "Hg10 mi
1:56 AM65 °FOvercast.No wind78%30.03 "Hg10 mi
12:56 AM65 °FOvercast.5 mph81%30.02 "Hg10 mi
11:56 PM
Sun, Jul 5
65 °FOvercast.No wind81%30.01 "Hg10 mi
10:56 PM64 °FPassing clouds.10 mph84%30.01 "Hg10 mi
9:56 PM64 °FClear.10 mph84%29.99 "Hg10 mi
8:56 PM65 °FSunny.13 mph78%29.98 "Hg10 mi
7:56 PM68 °FSunny.15 mph73%29.96 "Hg10 mi
6:56 PM71 °FSunny.22 mph71%29.94 "Hg10 mi
5:56 PM73 °FSunny.16 mph66%29.93 "Hg10 mi
4:56 PM74 °FSunny.20 mph62%29.93 "Hg10 mi
Weather by CustomWeather, © 2015

See weather overviewHow to use our weather pages